Theta_e
313 314 315 316 315 315 313 313 312 312 312 312 311 311 312 313 314 314 313 312 313 312 311 312 312 311 303 291 291 300 309 305 301 300 296 294 291 289 285 288 289 286 288 291 291 291 289
316 317 318 319 317 315 313 313 312 312 312 312 311 311 312 313 313 313 311 310 311 311 311 311 311 311 297 285 300 299 299 300 299 298 295 295 292 292 289 288 286 288 288 288 290 290 290
318 319 319 318 318 317 314 313 312 313 313 313 312 311 312 312 313 313 310 309 310 310 310 310 309 304 293 290 297 297 299 298 299 299 295 296 296 292 290 288 291 289 284 287 288 289 287
320 320 319 319 318 318 316 315 314 313 313 314 313 312 312 312 313 313 310 308 308 307 309 309 307 298 288 297 295 298 298 298 300 301 298 298 298 294 290 290 289 285 283 278 287 288 289
320 320 321 321 320 319 318 317 316 315 314 314 313 313 313 312 313 313 311 307 309 308 307 307 295 291 285 299 294 296 297 295 297 299 298 299 296 288 289 282 279 279 270 277 281 288 287
322 322 321 322 322 320 319 318 317 317 315 315 314 313 313 312 313 312 312 309 308 304 303 298 294 288 290 289 293 294 296 297 295 294 294 292 288 281 279 276 268 270 271 278 277 284 286
323 323 322 322 321 320 320 319 319 318 317 316 315 314 314 312 312 311 305 297 292 293 291 285 286 288 290 293 295 294 297 295 295 292 282 287 280 272 278 280 281 280 277 276 280 286 282
323 322 322 322 321 321 320 319 319 319 319 318 316 315 313 311 310 309 298 291 290 292 284 290 289 290 292 292 289 293 297 290 283 278 285 281 276 283 285 285 281 279 273 273 280 284 282
323 322 322 322 321 321 320 320 320 320 319 318 317 315 312 310 310 299 293 292 297 295 284 286 288 288 289 292 288 289 293 290 281 276 276 275 283 286 284 281 278 277 273 274 276 279 280
318 318 318 318 318 320 320 320 319 319 318 318 317 314 309 309 303 297 292 297 297 294 278 284 284 287 291 291 287 293 294 289 285 275 280 279 285 283 281 279 279 270 282 280 278 270 265
317 317 317 317 317 316 317 318 318 318 318 317 317 310 305 307 297 294 294 297 295 292 273 283 283 291 290 287 287 289 293 289 283 279 275 276 280 280 277 281 282 277 282 280 279 266 270
315 315 315 315 316 316 316 316 317 317 316 317 314 308 306 303 295 294 296 295 293 282 273 276 282 281 281 286 287 288 289 290 288 282 281 278 284 281 281 283 283 284 277 277 274 266 261
312 312 313 314 314 315 316 316 316 316 315 315 310 306 300 299 295 296 295 292 282 275 280 277 277 280 279 279 282 284 283 282 277 270 269 277 279 281 283 279 283 277 267 260 261 261 264
309 309 310 311 313 313 315 316 316 316 315 311 306 302 298 297 298 297 295 288 278 279 284 280 279 279 277 279 280 279 279 276 280 277 268 265 267 273 283 279 273 275 269 262 256 260 263
307 307 307 309 310 311 313 313 313 315 313 307 304 298 295 294 298 296 291 284 277 285 282 279 280 274 273 279 275 275 277 276 279 277 270 266 270 280 281 282 279 272 266 275 261 259 263
305 305 305 306 308 308 310 311 312 313 308 306 299 296 292 297 297 296 286 283 285 283 283 280 278 278 269 273 275 272 276 280 280 281 278 274 265 273 278 282 279 274 277 265 263 257 256
305 304 304 304 305 306 307 308 310 311 308 306 299 291 293 297 296 288 285 286 286 285 285 282 278 273 276 271 275 273 277 280 282 280 281 274 267 270 277 268 269 268 267 267 266 268 260
306 305 304 303 303 303 305 307 307 311 308 304 297 286 293 296 286 285 285 286 285 283 285 283 279 279 275 276 276 273 277 279 283 279 276 279 274 266 270 279 281 276 270 273 264 260 266
306 306 304 303 303 302 303 305 305 309 307 300 289 287 294 294 285 284 284 283 282 283 283 281 278 281 280 274 274 278 279 283 284 281 278 279 267 261 268 273 276 271 275 276 269 272 267
305 305 305 305 303 302 301 303 303 305 309 299 289 285 285 287 287 286 285 284 281 284 282 282 282 281 278 274 279 275 279 281 283 282 285 283 276 268 266 266 265 268 273 276 271 261 264
304 304 304 305 305 302 302 301 302 304 305 300 292 286 286 282 284 285 286 286 283 282 281 282 279 279 277 275 275 273 278 279 281 284 281 277 268 272 273 272 270 273 272 271 270 272 265
302 303 303 305 305 305 304 302 302 303 304 298 288 287 286 286 286 285 287 284 284 284 280 280 277 280 280 274 279 276 278 279 277 279 279 279 265 267 264 273 274 270 273 272 271 272 270
303 303 303 303 304 305 305 304 303 302 302 295 294 293 292 288 281 284 284 284 284 285 284 284 281 280 278 281 282 281 281 281 280 278 277 274 267 263 261 269 267 266 267 267 267 265 267
301 302 303 303 303 304 305 305 304 304 302 297 296 294 289 285 285 285 285 285 285 285 284 281 282 282 282 283 282 280 279 278 278 278 280 268 268 262 260 261 258 274 276 273 271 272 270
301 301 301 302 302 303 303 303 304 305 304 297 297 294 290 285 286 286 286 286 286 287 286 282 283 285 285 282 278 268 267 269 268 272 275 276 269 262 260 253 266 274 274 274 273 273 276
300 301 302 302 302 302 302 302 303 304 305 298 296 297 293 287 286 288 286 288 285 283 282 282 283 285 284 282 276 268 265 264 263 264 275 277 276 268 257 256 257 273 276 277 276 268 276
299 299 301 301 301 302 301 301 302 302 303 299 292 298 293 287 289 290 287 286 289 285 280 280 280 280 283 278 272 268 268 267 265 262 262 266 268 268 268 260 264 274 277 277 265 272 278
298 299 300 300 301 301 301 301 301 302 302 300 294 297 294 287 289 290 290 286 285 285 281 279 279 277 276 275 273 269 265 268 264 267 266 266 264 262 263 260 262 277 276 273 277 277 277
296 298 299 298 300 300 300 301 301 301 302 301 293 296 296 289 287 289 291 292 293 290 285 281 283 276 279 273 272 270 268 263 264 265 271 266 270 267 270 269 277 278 278 280 279 279 277
Wind_Speed
2 3 4 4 3 4 4 5 6 7 9 10 11 12 13 14 14 15 15 13 10 8 7 9 10 10 4 6 3 6 10 11 8 9 11 6 8 4 3 2 2 3 3 5 4 6 4
4 5 7 7 4 2 3 4 3 5 8 9 10 12 13 14 15 15 16 12 9 7 8 9 11 10 2 6 4 7 9 6 7 8 8 8 4 3 2 2 2 2 4 7 6 4 4
7 6 4 4 3 2 2 3 3 3 6 8 9 12 13 14 15 15 15 11 8 8 8 9 11 3 6 3 3 6 7 2 4 5 4 4 5 4 2 2 1 2 4 7 5 4 3
7 7 5 4 3 3 4 3 4 4 5 5 8 9 12 14 15 15 15 10 6 7 8 8 8 2 3 0 3 6 6 3 7 3 3 4 5 3 2 1 0 4 5 5 3 4 2
8 8 8 6 5 5 6 5 5 4 4 5 6 8 11 14 15 16 14 9 7 8 7 9 3 2 3 1 3 4 2 3 6 2 3 4 3 1 3 3 5 8 1 4 10 6 4
9 9 8 6 6 7 6 6 6 6 5 6 6 7 9 12 16 17 16 3 5 7 3 3 2 6 4 4 4 4 2 2 3 6 5 3 3 4 6 6 2 4 2 3 5 6 9
10 10 9 8 7 8 7 7 8 7 6 6 7 7 9 12 16 19 9 4 7 4 8 2 0 1 2 7 2 1 3 4 6 4 4 4 6 2 3 2 2 3 3 6 7 9 7
11 10 9 9 8 10 9 9 9 9 8 7 7 7 9 11 13 15 5 6 2 3 3 1 1 1 1 2 3 4 7 5 7 1 5 6 1 2 2 2 2 3 2 7 6 3 8
8 8 5 9 9 11 10 11 10 9 9 8 7 6 8 11 11 5 5 3 1 1 3 0 1 2 1 3 2 4 4 3 5 3 2 5 3 2 1 2 2 3 4 3 8 5 6
7 5 4 4 6 7 10 11 9 9 9 8 7 2 6 13 3 1 3 3 2 1 6 2 1 2 1 1 3 2 2 2 2 4 1 4 3 3 2 2 4 2 1 3 8 6 3
4 5 5 6 7 9 7 8 8 8 9 6 4 6 4 8 2 2 2 5 3 3 5 2 0 1 1 2 2 2 1 1 2 3 6 6 1 1 1 3 4 8 8 10 6 3 4
9 9 9 8 8 8 8 7 6 5 5 2 10 8 2 2 3 1 3 4 2 7 7 3 2 2 5 2 2 1 1 0 1 2 2 5 1 2 2 4 2 5 5 7 4 4 3
9 10 11 10 9 9 7 7 5 6 5 8 12 7 4 2 0 3 3 2 6 4 2 5 2 1 2 3 2 3 2 2 1 5 4 5 2 0 1 3 5 8 7 6 8 6 7
9 10 11 11 12 12 9 7 6 7 3 16 14 8 6 3 3 4 1 5 3 4 3 2 2 1 1 2 1 4 3 2 1 2 3 4 9 2 2 3 5 3 6 7 5 4 7
7 8 9 11 12 14 14 12 12 6 13 18 11 2 3 3 4 2 4 1 8 4 2 1 2 5 5 1 2 5 3 3 2 3 6 4 7 0 2 2 5 4 2 3 3 1 3
4 6 7 9 10 10 12 13 13 11 20 16 4 3 2 4 4 2 3 5 4 1 0 1 4 4 3 4 1 4 3 2 3 2 4 3 4 3 3 3 4 6 2 4 4 3 7
4 3 7 7 8 10 11 12 12 14 18 11 3 3 1 3 2 3 3 5 2 1 1 2 3 2 5 4 4 3 4 2 3 3 4 4 5 7 3 4 9 2 2 2 4 5 5
6 4 5 8 8 8 10 11 13 9 16 2 2 2 1 2 2 0 2 3 1 2 0 2 1 3 5 4 2 4 5 5 5 6 5 4 4 4 11 4 5 6 8 5 6 7 5
8 7 6 8 6 8 8 10 10 2 13 3 3 2 1 1 3 3 1 2 2 4 3 3 3 3 1 5 2 6 3 2 5 6 6 5 2 4 9 6 5 2 5 4 3 2 8
10 9 10 11 9 8 9 8 9 7 9 2 3 3 1 1 1 3 3 3 3 1 1 2 2 2 2 2 2 4 3 2 5 5 4 3 3 8 9 9 4 4 5 8 7 4 5
13 13 12 13 11 7 8 9 10 8 9 3 2 4 4 4 5 5 5 4 4 3 2 5 2 6 6 4 2 6 5 2 4 6 3 4 5 4 7 10 7 15 16 10 12 15 8
15 15 13 14 13 12 11 10 9 10 12 3 3 3 1 3 2 8 8 7 9 5 8 6 6 6 8 7 9 8 6 5 6 3 5 4 5 2 7 8 9 9 18 16 19 15 16
16 16 15 16 14 15 14 12 10 9 2 2 1 1 4 5 4 5 7 8 8 7 8 5 9 5 10 17 7 4 4 2 4 8 8 6 4 3 7 3 7 9 11 7 6 5 8
17 19 17 17 17 16 15 14 15 13 10 0 2 1 4 8 8 7 6 8 12 14 3 3 6 6 3 4 4 5 4 4 2 3 4 6 5 3 6 6 2 8 4 7 11 8 16
21 21 21 20 21 18 16 15 14 17 15 3 2 2 3 6 6 7 6 6 6 5 6 6 4 1 5 3 1 5 5 6 4 3 1 4 5 2 1 3 10 11 3 7 8 9 13
24 25 22 21 21 21 19 18 18 19 19 4 4 3 4 3 10 8 9 10 6 4 2 3 2 3 3 2 2 5 5 4 4 6 3 2 3 4 3 2 7 6 1 1 2 7 7
26 26 26 25 24 23 23 21 21 22 22 9 4 9 2 6 5 6 6 7 7 4 3 4 4 2 1 3 3 4 5 3 3 7 6 3 2 12 8 5 13 15 7 1 7 9 5
27 28 25 26 26 24 25 24 22 22 22 13 4 9 8 3 4 7 10 8 3 5 6 6 5 2 3 5 4 5 4 6 2 4 8 10 9 6 4 3 13 10 5 10 7 3 3
29 28 27 21 24 26 25 26 25 24 23 20 9 6 6 6 4 2 4 4 10 10 7 7 1 6 7 3 2 2 1 2 4 5 1 3 11 10 14 15 6 9 7 10 8 6 4
Wind_Direction
285 300 295 321 318 360 20 16 11 9 2 4 3 0 356 354 353 352 352 351 353 354 351 345 348 349 351 49 56 337 346 1 346 352 30 13 37 354 91 61 70 49 326 315 299 312 267
266 278 300 328 22 336 356 3 8 1 358 359 358 357 354 351 350 350 346 345 347 349 344 342 342 341 13 67 289 354 348 8 3 13 30 23 25 330 61 57 76 275 277 268 273 229 232
254 271 306 305 319 292 303 330 335 352 0 356 354 353 351 348 349 345 346 337 331 336 329 332 333 315 53 125 5 0 358 355 5 26 13 359 350 32 334 98 248 265 329 329 221 211 231
264 284 268 284 286 274 268 291 322 331 340 359 343 342 344 344 342 339 345 341 313 322 315 310 316 324 91 116 337 13 356 12 356 24 19 323 347 306 65 134 279 342 39 9 298 174 224
258 262 266 268 265 265 272 279 290 314 326 335 334 337 345 341 335 332 335 322 290 299 291 293 347 48 24 318 26 334 9 346 308 313 337 312 310 7 21 45 25 9 253 308 323 325 359
242 250 262 276 253 262 266 275 281 292 304 312 324 331 337 341 336 331 329 272 288 318 257 285 12 51 20 337 315 317 268 348 343 341 357 344 18 59 25 57 215 263 346 284 271 287 321
243 241 249 253 255 262 268 268 272 277 288 307 317 325 340 343 343 338 352 37 17 3 31 95 233 210 48 312 298 326 345 346 3 31 31 351 61 146 157 112 158 250 250 258 259 269 328
239 240 249 255 255 259 260 262 265 278 283 290 303 319 334 338 345 343 27 72 182 208 333 305 145 218 127 346 304 5 10 63 55 65 350 19 147 128 77 267 283 241 253 282 290 344 323
245 244 279 265 251 256 261 263 260 264 273 277 280 302 332 332 337 44 70 97 316 223 104 150 76 26 297 358 340 349 37 88 97 38 36 155 178 136 121 324 6 285 190 278 268 333 269
80 59 24 352 355 338 276 259 254 269 270 273 263 231 338 321 30 325 53 337 272 357 64 290 40 357 322 300 35 72 56 119 97 196 225 220 214 143 62 258 115 301 242 308 312 38 272
49 64 42 17 356 338 350 338 290 270 271 284 264 120 40 41 295 49 312 332 306 59 14 267 348 312 248 69 292 206 114 98 268 225 91 260 132 159 128 219 134 240 325 292 289 148 19
46 39 31 21 10 346 329 319 310 306 296 318 139 141 148 67 59 286 337 337 58 42 266 325 343 350 23 326 194 273 270 190 326 197 248 239 159 187 245 289 209 301 332 22 68 100 9
36 30 24 14 9 354 330 307 294 282 297 122 132 99 65 36 219 311 349 43 32 141 353 298 325 48 104 305 342 11 317 287 201 45 335 328 299 90 260 8 11 38 42 353 356 7 226
27 22 17 10 9 356 349 351 298 272 308 131 119 82 41 39 357 349 360 49 176 238 246 255 242 300 257 1 16 329 312 285 175 131 94 109 332 132 289 137 186 46 124 143 249 283 270
16 12 12 10 4 359 4 23 354 282 142 135 117 72 64 348 339 2 70 145 207 208 198 219 136 62 315 233 160 38 237 215 155 140 155 101 282 134 45 59 111 267 68 166 107 139 9
19 14 9 7 1 356 358 358 353 145 147 150 103 102 50 325 346 29 83 246 228 148 120 231 165 135 211 261 27 81 238 251 146 121 121 199 341 236 268 81 4 141 170 33 8 346 301
324 314 328 347 348 350 351 352 347 171 161 153 90 84 333 352 34 55 202 232 259 233 22 185 225 247 216 208 172 237 242 249 123 133 95 127 105 289 62 201 180 19 346 14 127 152 196
292 294 314 314 319 333 339 345 354 188 152 85 148 108 315 315 79 232 198 224 191 200 144 183 228 186 182 174 228 245 234 203 138 142 176 199 151 258 229 266 157 165 189 160 130 271 228
305 281 257 300 302 317 322 333 0 161 182 140 107 96 344 322 187 215 211 243 246 201 217 172 232 231 121 187 242 217 226 160 147 166 176 181 289 353 340 351 358 202 222 171 134 109 218
301 308 305 282 293 302 308 304 336 319 255 40 130 140 321 92 249 183 170 224 256 321 240 185 216 122 122 249 242 288 262 197 189 190 169 143 215 184 205 211 149 264 227 203 150 150 223
299 291 286 285 272 271 282 290 296 298 313 144 180 231 180 178 219 184 172 172 177 252 224 174 308 211 172 220 197 227 225 199 198 203 188 140 222 244 252 252 218 254 253 206 203 216 192
280 281 284 290 271 264 254 254 269 288 319 196 168 156 2 176 140 172 192 206 216 182 161 227 206 197 188 197 193 202 182 197 205 166 172 185 259 97 284 255 245 256 252 224 223 242 254
287 279 274 272 281 266 250 252 235 248 90 258 162 41 140 179 182 162 187 203 213 157 220 192 196 159 199 231 226 236 219 199 195 166 189 169 148 65 265 348 314 289 237 172 187 210 159
279 280 278 278 274 266 262 254 232 231 185 357 247 164 182 234 200 195 199 192 212 205 208 240 168 170 224 96 104 24 49 13 356 243 181 144 122 131 264 1 287 246 189 177 194 214 212
277 276 272 270 269 266 262 262 257 234 208 168 208 244 210 239 190 190 206 209 228 192 210 177 215 137 142 124 50 7 333 7 329 9 136 155 127 306 206 216 299 287 178 160 174 279 204
290 285 276 263 259 256 251 257 264 256 232 176 193 188 270 279 231 181 192 195 191 178 172 147 19 19 98 156 149 196 226 209 295 340 343 153 89 142 79 172 241 253 232 171 121 290 202
281 277 276 273 266 260 250 244 248 252 246 211 196 177 252 245 204 150 202 188 179 169 129 130 167 146 93 167 187 186 241 178 213 176 177 148 204 218 214 247 279 252 233 194 86 243 168
289 284 272 272 265 261 253 247 239 245 245 231 220 179 196 251 239 202 171 165 139 163 164 157 115 254 147 196 185 217 172 220 111 187 179 170 160 195 135 206 274 173 76 174 221 256 222
283 290 278 280 281 263 256 249 247 242 236 239 233 192 190 217 266 293 258 244 187 185 140 183 204 166 168 145 225 116 238 91 175 251 296 259 194 181 187 214 240 210 221 231 164 199 220